Location: Asheville, NC
(35.6000°N, 82.5500°W)
Time: 16:47:09
(UTC-05:00)

Vanguard 2 Rocket - Pass Details

Date: 12 February 2018
Orbit: 555 x 3327 km, 32.9° (Epoch: 17 February)

Event Time Altitude Azimuth Distance (km) Brightness Sun altitude
Rises 05:37:18 0° 278° (W) 7,227 - -21.4°
Reaches altitude 10° 05:42:06 10° 277° (W) 6,277 - -20.5°
Exits shadow 05:47:34 23° 275° (W) 5,198 10.1 -19.3°
Maximum altitude 06:02:21 72° 199° (SSW) 3,043 9.4 -16.3°
Drops below altitude 10° 06:16:35 10° 118° (ESE) 4,627 11.7 -13.5°
Sets 06:19:33 0° 116° (ESE) 5,321 12.3 -12.9°
